Home   Weather   Volos   Past weeks

Flag for Greece Past Weather in Volos, Greece — Yesterday and Last 2 Weeks

Now
55 °F

Sunny.


Feels Like: 53 °F
Forecast: 48 / 65 °F
Wind: 9 mph from North

Location: Skiathos Island

Current Time: Apr 24, 2017 at 8:38:39 am

Latest Report: Apr 24, 2017 at 7:50 am


Visibility: 10 mi

Pressure: 30.15 "Hg

Humidity: 55%

Dew Point: 39 °F

Location of VolosLocation

Past Weather in Volos — Graph

°F

Volos Temperature Yesterday

Maximum temperature yesterday: 63 °F (at 11:50 am)
Minimum temperature yesterday: 52 °F (at 5:50 am)
Average temperature yesterday: 59 °F

High & Low Weather Summary for the Past Weeks

 TemperatureHumidityPressure
High70 °F (Apr 16, 2:50 pm)88% (Apr 12, 4:50 am)30.24 "Hg (Apr 12, 4:50 am)
Low46 °F (Apr 11, 6:50 am)33% (Apr 21, 6:50 pm)29.77 "Hg (Apr 13, 6:50 pm)
Average59 °F64%29.97 "Hg
* Reported Apr 9 8:50 am — Apr 24 6:50 am, Volos, Weather by CustomWeather, © 2017

Note: Actual official high and low records may vary slightly from our data, if they occured in-between our weather recording intervals... More about our weather records

Advertising

Volos Weather History for the Previous 24 Hours

Scroll right to see more
 ConditionsComfort  
Time TempWeatherWind HumidityBarometerVisibility
6:50 am
Mon, Apr 24
55 °FSunny.13 mph55%30.12 "Hg10 mi
5:50 am57 °FClear.9 mph55%30.12 "Hg10 mi
9:50 pm
Sun, Apr 23
57 °FClear.6 mph63%30.01 "Hg10 mi
8:50 pm59 °FClear.No wind63%30.01 "Hg10 mi
7:50 pm61 °FSunny.No wind52%30.01 "Hg10 mi
6:50 pm63 °FSunny.No wind49%29.98 "Hg10 mi
5:50 pm63 °FSunny.No wind39%30.01 "Hg10 mi
4:50 pm63 °FSunny.5 mph37%30.01 "Hg10 mi
3:50 pm63 °FPassing clouds.No wind34%30.01 "HgN/A
2:50 pm63 °FPassing clouds.No wind34%30.01 "HgN/A
1:50 pm63 °FPassing clouds.5 mph34%30.04 "HgN/A
12:50 pm63 °FSunny.7 mph34%30.04 "Hg10 mi
11:50 am63 °FSunny.No wind37%30.01 "Hg10 mi
10:50 am61 °FSunny.6 mph42%30.01 "Hg10 mi
9:50 am59 °FSunny.8 mph39%30.01 "Hg10 mi
8:50 am55 °FSunny.9 mph44%30.01 "Hg10 mi
Weather by CustomWeather, © 2017

See weather overviewHow to use our weather pages